When you browse on this site, cookies collect data to enhance your experience and personalize the content and advertising you see.
Visit our Privacy Policy to learn more. By continuing to use the site, you agree to this use of cookies and data.
  • en Belgique
  • Liste des pays
  • À 7 jours
  • Température de l'eau
  • Carte satellitaire
  • Carte météo
  • Widgets météo
  • user-avatar
    Se connecter

    Météo par heure à Radakowice

    Ce jour, 24 Janvier, Jeudi

    Heure Température Précipitation Vent Pression Humidité
    00:00 -7°C° 0 mm 5 m/s 743 mmHg 68%
    01:00 -7°C° 0 mm 4 m/s 743 mmHg 69%
    02:00 -7°C° 0 mm 4 m/s 743 mmHg 69%
    03:00 -8°C° 0 mm 4 m/s 743 mmHg 69%
    04:00 -8°C° 0 mm 4 m/s 743 mmHg 69%
    05:00 -8°C° 0 mm 4 m/s 743 mmHg 69%
    06:00 -8°C° 0 mm 4 m/s 744 mmHg 69%
    07:00 -8°C° 0 mm 4 m/s 744 mmHg 70%
    08:00 -8°C° 0 mm 4 m/s 744 mmHg 68%
    09:00 -8°C° 0 mm 4 m/s 745 mmHg 67%
    10:00 -8°C° 0 mm 5 m/s 745 mmHg 65%
    11:00 -7°C° 0 mm 4 m/s 745 mmHg 64%
    12:00 -7°C° 0 mm 4 m/s 745 mmHg 63%
    13:00 -7°C° 0 mm 4 m/s 745 mmHg 61%
    14:00 -7°C° 0 mm 4 m/s 745 mmHg 62%
    15:00 -7°C° 0 mm 4 m/s 745 mmHg 63%
    16:00 -7°C° 0 mm 4 m/s 745 mmHg 65%
    17:00 -7°C° 0 mm 4 m/s 745 mmHg 66%
    18:00 -7°C° 0 mm 4 m/s 745 mmHg 67%
    19:00 -7°C° 0 mm 4 m/s 746 mmHg 68%
    20:00 -6°C° 0 mm 3 m/s 746 mmHg 68%
    21:00 -6°C° 0 mm 3 m/s 746 mmHg 67%
    22:00 -6°C° 0 mm 3 m/s 746 mmHg 67%
    23:00 -6°C° 0 mm 3 m/s 746 mmHg 68%

    Demain, 25 Janvier, Vendredi

    Heure Température Précipitation Vent Pression Humidité
    00:00 -5°C° 0 mm 2 m/s 746 mmHg 68%
    01:00 -5°C° 0 mm 2 m/s 746 mmHg 69%
    02:00 -5°C° 0 mm 2 m/s 746 mmHg 70%
    03:00 -5°C° 0 mm 2 m/s 746 mmHg 71%
    04:00 -6°C° 0 mm 2 m/s 746 mmHg 72%
    05:00 -6°C° 0 mm 2 m/s 747 mmHg 73%
    06:00 -6°C° 0 mm 2 m/s 747 mmHg 74%
    07:00 -6°C° 0 mm 2 m/s 747 mmHg 74%
    08:00 -6°C° 0 mm 2 m/s 747 mmHg 73%
    09:00 -5°C° 0 mm 2 m/s 748 mmHg 73%
    10:00 -5°C° 0 mm 2 m/s 748 mmHg 72%
    11:00 -6°C° 0 mm 3 m/s 748 mmHg 69%
    12:00 -6°C° 0 mm 3 m/s 748 mmHg 67%
    13:00 -5°C° 0 mm 3 m/s 748 mmHg 65%
    14:00 -5°C° 0 mm 3 m/s 748 mmHg 64%
    15:00 -5°C° 0 mm 4 m/s 749 mmHg 63%
    16:00 -7°C° 0 mm 4 m/s 749 mmHg 62%
    17:00 -7°C° 0 mm 4 m/s 749 mmHg 63%
    18:00 -7°C° 0 mm 4 m/s 750 mmHg 63%
    19:00 -6°C° 0 mm 3 m/s 750 mmHg 63%
    20:00 -6°C° 0 mm 3 m/s 750 mmHg 65%
    21:00 -6°C° 0 mm 3 m/s 750 mmHg 66%
    22:00 -6°C° 0 mm 3 m/s 750 mmHg 68%
    23:00 -7°C° 0 mm 3 m/s 750 mmHg 69%

    Après-demain, 26 Janvier, Samedi

    Heure Température Précipitation Vent Pression Humidité
    00:00 -7°C° 0 mm 3 m/s 750 mmHg 70%
    01:00 -6°C° 0 mm 2 m/s 750 mmHg 71%
    02:00 -6°C° 0 mm 2 m/s 750 mmHg 71%
    03:00 -7°C° 0 mm 2 m/s 749 mmHg 70%
    04:00 -7°C° 0 mm 2 m/s 749 mmHg 70%
    05:00 -7°C° 0 mm 3 m/s 749 mmHg 67%
    06:00 -7°C° 0 mm 3 m/s 748 mmHg 64%
    07:00 -7°C° 0 mm 3 m/s 748 mmHg 61%
    08:00 -7°C° 0 mm 4 m/s 747 mmHg 58%
    09:00 -6°C° 0 mm 5 m/s 747 mmHg 54%
    10:00 -5°C° 0 mm 6 m/s 746 mmHg 50%
    11:00 -4°C° 0.7 mm 5 m/s 745 mmHg 61%
    12:00 -2°C° 0.7 mm 5 m/s 745 mmHg 72%
    13:00 -1°C° 0.7 mm 5 m/s 744 mmHg 83%
    14:00 -1°C° 0.6 mm 5 m/s 743 mmHg 84%
    15:00 0°C° 0.6 mm 5 m/s 743 mmHg 84%
    16:00 +1°C° 0.6 mm 5 m/s 743 mmHg 84%
    17:00 +1°C° 0.1 mm 5 m/s 743 mmHg 85%
    18:00 +1°C° 0.1 mm 5 m/s 743 mmHg 87%
    19:00 +1°C° 0.1 mm 5 m/s 743 mmHg 88%
    20:00 +1°C° 0.1 mm 5 m/s 743 mmHg 89%
    21:00 0°C° 0.1 mm 4 m/s 743 mmHg 90%
    22:00 0°C° 0.1 mm 4 m/s 743 mmHg 91%
    23:00 0°C° 0.4 mm 4 m/s 743 mmHg 91%

    27 Janvier, Dimanche

    Heure Température Précipitation Vent Pression Humidité
    00:00 +1°C° 0.4 mm 3 m/s 743 mmHg 92%
    01:00 +2°C° 0.4 mm 2 m/s 743 mmHg 92%
    02:00 +1°C° 0.3 mm 3 m/s 742 mmHg 92%
    03:00 +1°C° 0.3 mm 3 m/s 742 mmHg 91%
    04:00 +1°C° 0.3 mm 3 m/s 741 mmHg 91%
    05:00 0°C° 0 mm 3 m/s 741 mmHg 89%
    06:00 0°C° 0 mm 3 m/s 741 mmHg 88%
    07:00 -1°C° 0 mm 4 m/s 740 mmHg 87%
    08:00 0°C° 0 mm 4 m/s 740 mmHg 84%
    09:00 0°C° 0 mm 5 m/s 739 mmHg 81%
    10:00 +1°C° 0 mm 5 m/s 739 mmHg 78%
    11:00 +1°C° 0 mm 5 m/s 738 mmHg 76%
    12:00 +2°C° 0 mm 5 m/s 738 mmHg 73%
    13:00 +3°C° 0 mm 5 m/s 737 mmHg 71%
    14:00 +2°C° 0 mm 5 m/s 737 mmHg 72%
    15:00 +2°C° 0 mm 5 m/s 736 mmHg 72%
    16:00 +1°C° 0 mm 4 m/s 736 mmHg 73%
    17:00 +1°C° 0.1 mm 5 m/s 736 mmHg 73%
    18:00 +1°C° 0.1 mm 5 m/s 736 mmHg 73%
    19:00 -1°C° 0.1 mm 6 m/s 736 mmHg 72%
    20:00 0°C° 0.1 mm 5 m/s 735 mmHg 74%
    21:00 0°C° 0.1 mm 5 m/s 735 mmHg 76%
    22:00 0°C° 0.1 mm 5 m/s 735 mmHg 78%
    23:00 0°C° 0 mm 5 m/s 735 mmHg 78%

    28 Janvier, Lundi

    Heure Température Précipitation Vent Pression Humidité
    00:00 0°C° 0 mm 5 m/s 735 mmHg 78%
    01:00 -1°C° 0 mm 6 m/s 734 mmHg 78%
    02:00 -1°C° 0 mm 6 m/s 734 mmHg 79%
    03:00 0°C° 0 mm 5 m/s 734 mmHg 79%
    04:00 0°C° 0 mm 5 m/s 733 mmHg 80%
    05:00 0°C° 0 mm 5 m/s 733 mmHg 80%
    06:00 -1°C° 0 mm 5 m/s 733 mmHg 80%
    07:00 -1°C° 0 mm 5 m/s 733 mmHg 80%
    08:00 -1°C° 0 mm 6 m/s 734 mmHg 76%
    09:00 0°C° 0 mm 7 m/s 734 mmHg 72%
    10:00 0°C° 0 mm 8 m/s 734 mmHg 69%
    11:00 +1°C° 0 mm 8 m/s 734 mmHg 67%
    12:00 +1°C° 0 mm 8 m/s 734 mmHg 66%
    13:00 +2°C° 0 mm 8 m/s 734 mmHg 64%
    14:00 +2°C° 0 mm 7 m/s 734 mmHg 67%
    15:00 +2°C° 0 mm 6 m/s 735 mmHg 70%
    16:00 +1°C° 0 mm 6 m/s 735 mmHg 73%
    17:00 +1°C° 0 mm 5 m/s 736 mmHg 77%
    18:00 0°C° 0 mm 5 m/s 737 mmHg 80%
    19:00 -1°C° 0 mm 4 m/s 737 mmHg 83%
    20:00 -1°C° 0 mm 4 m/s 738 mmHg 83%
    21:00 -2°C° 0 mm 4 m/s 738 mmHg 82%
    22:00 -2°C° 0 mm 4 m/s 739 mmHg 82%
    23:00 -2°C° 0 mm 4 m/s 739 mmHg 82%

    29 Janvier, Mardi

    Heure Température Précipitation Vent Pression Humidité
    00:00 -2°C° 0 mm 4 m/s 739 mmHg 82%
    01:00 -3°C° 0 mm 4 m/s 739 mmHg 82%
    02:00 -3°C° 0 mm 4 m/s 739 mmHg 83%
    03:00 -2°C° 0 mm 3 m/s 739 mmHg 84%
    04:00 -2°C° 0 mm 3 m/s 739 mmHg 84%
    05:00 -2°C° 0 mm 3 m/s 739 mmHg 84%
    06:00 -4°C° 0 mm 3 m/s 739 mmHg 84%
    07:00 -4°C° 0 mm 3 m/s 740 mmHg 83%
    08:00 -2°C° 0 mm 3 m/s 740 mmHg 79%
    09:00 -1°C° 0 mm 3 m/s 740 mmHg 75%
    10:00 0°C° 0 mm 3 m/s 740 mmHg 70%
    11:00 0°C° 0 mm 3 m/s 740 mmHg 67%
    12:00 +1°C° 0 mm 3 m/s 740 mmHg 64%
    13:00 +3°C° 0 mm 2 m/s 740 mmHg 61%
    14:00 +1°C° 0 mm 3 m/s 739 mmHg 64%
    15:00 0°C° 0 mm 3 m/s 739 mmHg 67%
    16:00 0°C° 0 mm 3 m/s 739 mmHg 70%
    17:00 -1°C° 0 mm 3 m/s 739 mmHg 71%
    18:00 -2°C° 0 mm 4 m/s 739 mmHg 71%
    19:00 -3°C° 0 mm 4 m/s 739 mmHg 72%
    20:00 -3°C° 0 mm 4 m/s 739 mmHg 73%
    21:00 -2°C° 0 mm 4 m/s 739 mmHg 73%
    22:00 -2°C° 0 mm 4 m/s 739 mmHg 74%
    23:00 -2°C° 0.2 mm 4 m/s 739 mmHg 78%
    Voir plus